Montreal/Mirabel, Ontario

6:58 AM EST on February 25, 2017 (GMT -0500)
Montreal International (Mirabel)

Weather History for CYMX - February, 2013

Change the Weather History Date:

Friday, February 22, 2013

  Actual Average Record
Temperature  
Mean Temperature 21 °F -  
Max Temperature 32 °F 24 °F 42 °F (2014)
Min Temperature 10 °F 7 °F -11 °F (1999)
Degree Days  
Heating Degree Days 44    
Moisture  
Dew Point 18 °F    
Average Humidity 82    
Maximum Humidity 93    
Minimum Humidity 69    
Precipitation  
Precipitation 0.00 in - - ()
Sea Level Pressure  
Sea Level Pressure 30.38 in    
Wind  
Wind Speed 3 mph ()    
Max Wind Speed 9 mph    
Max Gust Speed -    
Visibility 19.6 miles    
Events Snow    
Averages and records for this station are not official NWS values.
T = Trace of Precipitation, MM = Missing Value Source: Averaged Metar Reports

Daily Weather History Graph

Daily Weather History Graph

Search for Another Location

Airport or City:

Trip Planner

Search our weather history database for the weather conditions in past years. The results will help you decide how hot, cold, wet, or windy it might be!

Date:

Astronomy

Feb. 22, 2013 Rise Set
Actual Time 6:46 AM EST 5:33 PM EST
Civil Twilight 6:16 AM EST 6:03 PM EST
Nautical Twilight 5:41 AM EST 6:38 PM EST
Astronomical Twilight 5:07 AM EST 7:12 PM EST
Moon 2:36 PM EST (2/22) 4:36 AM EST (2/22)
Length of Visible Light 11h 47m
Length of Day
10h 46m
Waxing Gibbous, 90% of the Moon is Illuminated
Feb 22
Waxing Gibbous
Feb 25
Full
Mar 4
Last Quarter
Mar 11
New
Mar 19
First Quarter

Hourly Weather History & Observations

Time (EST) Temp. Windchill Dew Point Humidity Pressure Visibility Wind Dir Wind Speed Gust Speed Precip Events Conditions
12:00 AM 21.2 °F 12.6 °F 15.8 °F 80% 30.40 in 25.0 mi WSW 6.9 mph - N/A   Mostly Cloudy
1:00 AM 21.2 °F 14.9 °F 15.8 °F 80% 30.41 in 25.0 mi SW 4.6 mph - N/A   Overcast
2:00 AM 19.4 °F - 15.8 °F 86% 30.41 in 25.0 mi Calm Calm - N/A   Overcast
3:00 AM 19.4 °F - 15.8 °F 86% 30.40 in 25.0 mi Calm Calm - N/A   Overcast
4:00 AM 19.4 °F - 14.0 °F 80% 30.38 in 25.0 mi NNW 2.3 mph - N/A   Mostly Cloudy
5:00 AM 14.0 °F - 12.2 °F 93% 30.39 in 25.0 mi Variable 2.3 mph - N/A   Scattered Clouds
6:00 AM 10.4 °F - 8.6 °F 92% 30.41 in 25.0 mi WNW 2.3 mph - N/A   Partly Cloudy
7:00 AM 15.8 °F 7.2 °F 14.0 °F 93% 30.45 in 25.0 mi WSW 5.8 mph - N/A   Mostly Cloudy
7:41 AM 15.8 °F - 14.0 °F 93% 30.47 in 20.0 mi West 2.3 mph - N/A Snow Light Snow Showers
8:00 AM 17.6 °F 12.3 °F 14.0 °F 86% 30.46 in 20.0 mi North 3.5 mph - N/A Snow Light Snow Showers
8:23 AM 17.6 °F - 15.8 °F 93% 30.46 in 20.0 mi NNE 2.3 mph - N/A   Mostly Cloudy
9:00 AM 17.6 °F - 15.8 °F 93% 30.45 in 25.0 mi Calm Calm - N/A   Mostly Cloudy
10:00 AM 24.8 °F - 19.4 °F 80% 30.44 in 20.0 mi Calm Calm - N/A   Overcast
11:00 AM 26.6 °F - 19.4 °F 74% 30.44 in 20.0 mi Calm Calm - N/A   Overcast
12:00 PM 28.4 °F 22.2 °F 21.2 °F 74% 30.43 in 20.0 mi ENE 5.8 mph - N/A   Overcast
1:00 PM 30.2 °F 26.7 °F 23.0 °F 75% 30.40 in 20.0 mi NNE 3.5 mph - N/A   Overcast
2:00 PM 32.0 °F 26.4 °F 23.0 °F 69% 30.38 in 20.0 mi NE 5.8 mph - N/A   Mostly Cloudy
3:00 PM 32.0 °F 25.6 °F 23.0 °F 69% 30.36 in 20.0 mi NE 6.9 mph - N/A   Overcast
4:00 PM 30.2 °F 21.9 °F 21.2 °F 69% 30.34 in 15.0 mi ENE 9.2 mph - N/A   Overcast
5:00 PM 28.4 °F 19.7 °F 21.2 °F 74% 30.34 in 20.0 mi East 9.2 mph - N/A   Overcast
6:00 PM 26.6 °F 20.0 °F 19.4 °F 74% 30.31 in 25.0 mi ENE 5.8 mph - N/A   Mostly Cloudy
7:00 PM 24.8 °F 19.1 °F 19.4 °F 80% 30.33 in 25.0 mi ENE 4.6 mph - N/A   Mostly Cloudy
8:00 PM 24.8 °F 19.1 °F 19.4 °F 80% 30.30 in 25.0 mi NE 4.6 mph - N/A   Overcast
9:00 PM 24.8 °F 19.1 °F 19.4 °F 80% 30.29 in 25.0 mi NE 4.6 mph - N/A   Overcast
10:00 PM 24.8 °F 19.1 °F 21.2 °F 86% 30.28 in 25.0 mi NE 4.6 mph - N/A   Overcast
11:00 PM 24.8 °F 16.9 °F 19.4 °F 80% 30.26 in 20.0 mi ENE 6.9 mph - N/A   Overcast